[[{"header":{"parameterUnit":"m.s-1","parameterCategory":1,"la1":30.2991,"la2":30.254,"lo1":-89.0895,"lo2":-89.0444,"dy":0.0017,"dx":0.0017,"nx":28,"ny":28,"refTime":"2025-07-05T03:00:00:Z","depth":0,"parameterNumber":2,"parameterNumberName":"U-component_of_WINDS"},"data":[0,0,0,0,0,0,0,0,0,0,0,0,0,0,0,0,0,0,0,0,0,0,0,0,0,0,0,0,0,0,0,0,0,0,0,0,0,0,0,0,0,0,0,0,0,0,0,0,0,0,0,0,0,0,0,0,0,0,2.1952,2.1952,0,2.1949,2.1949,2.1949,2.1876,2.1874,2.1872,2.187,2.1872,2.1874,2.1875,0,0,0,0,0,0,0,0,0,0,0,0,0,2.1898,2.1899,2.1952,2.1952,2.1952,2.1949,2.1949,2.1949,2.1876,2.1874,2.1872,2.1869,2.1871,2.1873,2.1876,0,0,0,0,0,0,0,0,0,0,0,0,0,2.1911,2.19,2.1952,2.1915,2.1912,2.1949,2.1949,2.1949,2.1877,2.1874,2.1871,2.1868,2.1871,2.1873,2.1876,2.1949,0,0,2.1884,2.1885,0,0,0,0,0,0,0,0,2.191,2.1913,2.1921,2.1918,2.1914,2.191,2.193,2.1949,2.1877,2.189,2.187,2.1867,2.1887,2.1888,2.1894,2.1949,2.195,2.1884,2.1886,2.1887,2.1888,0,0,0,0,0,0,0,2.191,2.1913,2.1951,2.1921,2.1917,2.19,2.1899,2.1934,2.1905,2.1889,2.1884,2.1884,2.1885,2.1892,2.1894,2.195,2.1884,2.1887,2.1888,2.1889,2.2063,2.2066,0,0,0,0,0,0,2.1913,2.1913,2.1951,2.1951,2.1905,2.1903,2.1902,2.1914,2.1904,2.19,2.1886,2.1881,2.1888,2.189,2.1893,2.1977,2.1887,2.189,2.1891,2.206,2.2064,2.2067,0,0,0,0,0,0,2.1912,2.1917,2.1951,2.193,2.1933,2.1907,2.1922,2.1916,2.1922,2.1902,2.1897,2.1898,2.1886,2.189,2.1935,2.1976,2.1891,2.1893,2.2057,2.2061,2.2066,2.2147,0,0,0,0,0,0,2.1911,2.1918,2.1945,2.1931,2.1935,2.1993,2.1924,2.1918,2.1927,2.1919,2.1912,2.1908,2.1884,2.1932,2.1938,2.1979,2.1895,2.2053,2.2059,2.2064,2.2141,2.2154,2.2165,0,0,0,0,0,2.1909,2.1969,2.1946,2.1951,2.1968,2.1995,2.1997,2.1967,2.193,2.1958,2.1944,2.1909,2.1971,2.1937,2.1943,2.1986,2.205,2.2057,2.2064,2.2135,2.2151,2.2165,0,0,0,0,0,0,2.199,2.1967,2.1941,2.1998,2.1999,2.1983,2.2016,2.1985,2.1997,2.199,2.1953,2.1952,2.2004,2.1999,2.1962,2.2055,2.2004,2.2013,2.2056,2.2071,2.2083,2.2083,2.1898,0,0,0,0,0,2.2014,2.2037,2.2016,2.2069,2.207,2.2043,2.2054,2.203,2.203,2.2031,2.2021,2.2023,2.2043,2.2057,2.2074,2.214,2.2137,2.2172,2.2184,2.2194,2.2202,2.2235,2.225,2.2089,2.2089,2.2089,0,0,2.2065,2.2055,2.2072,2.2084,2.2082,2.2107,2.2044,2.2074,2.2092,2.2036,2.2077,2.207,2.207,2.2126,2.215,2.2124,2.2245,2.2203,2.2211,2.2213,2.2243,2.2258,2.2272,2.2094,2.2093,2.2092,0,0,2.217,2.2165,2.2207,2.2206,2.2202,2.2183,2.2194,2.2182,2.2174,2.2215,2.2172,2.2194,2.223,2.2231,2.2236,2.234,2.2307,2.2346,2.2411,2.2443,2.2456,2.2466,2.2502,2.2516,2.2354,2.2354,2.2354,0,2.2235,2.2269,2.2234,2.2265,2.2272,2.2219,2.2261,2.2262,2.2266,2.2271,2.2242,2.2283,2.228,2.2334,2.2359,2.2365,2.2376,2.2347,2.2456,2.2467,2.2477,2.2511,2.2524,2.2359,2.2359,2.2358,2.2358,0,2.2348,2.2373,2.2407,2.2409,2.2419,2.2456,2.2427,2.2442,2.2417,2.2401,2.2443,2.2437,2.2451,2.2462,2.244,2.2513,2.2497,2.2463,2.241,2.2497,2.2528,2.2541,2.2366,2.2364,2.2363,2.2362,0,0,2.2505,2.2484,2.2498,2.2497,2.2488,2.2507,2.2542,2.2554,2.2567,2.2571,2.2599,2.2629,2.2596,2.2602,2.2579,2.2607,2.2688,2.2569,2.2568,2.259,2.2767,2.2793,2.2808,2.2666,2.2668,2.267,2.2767,0,2.2606,2.2662,2.263,2.2691,2.2713,2.2663,2.2692,2.2691,2.2677,2.2695,2.268,2.2701,2.2657,2.266,2.2686,2.2672,2.2723,2.2665,2.2692,2.2693,2.2693,2.2825,2.2852,2.2944,2.2779,2.2781,2.2782,0,2.2731,2.2737,2.28,2.2785,2.2793,2.282,2.2828,2.2845,2.2842,2.283,2.2835,2.2804,2.2838,2.2786,2.2831,2.2792,2.2801,2.2796,2.2799,2.28,2.2743,2.2829,2.2973,2.2986,2.2802,2.28,2.2799,0,2.2839,2.2863,2.2903,2.2904,2.2888,2.2908,2.2902,2.2896,2.2905,2.2911,2.2916,2.2928,2.2935,2.2945,2.2918,2.2883,2.2966,2.2913,2.2957,2.2958,2.2978,2.2977,2.3124,2.2984,2.2984,2.2984,2.2984,0,2.2954,2.2995,2.295,2.2975,2.3019,2.2981,2.3026,2.3015,2.3009,2.3031,2.2989,2.3011,2.2974,2.2993,2.2972,2.3012,2.3016,2.3007,2.3001,2.3011,2.3012,2.3016,2.3009,2.2988,2.2987,2.2986,2.2985,0,2.3082,2.3054,2.3094,2.3074,2.307,2.3103,2.3086,2.3109,2.3091,2.312,2.3124,2.3098,2.3117,2.309,2.3108,2.3094,2.3148,2.3133,2.3149,2.3144,2.319,2.3186,2.3346,2.3364,2.3213,2.3215,2.3216,0,2.3158,2.3187,2.3169,2.318,2.3176,2.3194,2.3202,2.3166,2.3176,2.3173,2.3196,2.3211,2.3221,2.3254,2.3237,2.325,2.3234,2.3289,2.3236,2.3244,2.3234,2.3233,2.3235,2.33,2.3302,2.3304,2.3305,0,2.3295,2.3279,2.329,2.3297,2.3306,2.331,2.3311,2.3323,2.3285,2.3298,2.3316,2.3324,2.334,2.3356,2.3363,2.3358,2.3326,2.3321,2.3332,2.3342,2.335,2.3345,2.3178,2.3318,2.3317,2.3316,2.3315,2.3315,2.3398,2.3421,2.3411,2.3425,2.3421,2.3423,2.3442,2.3425,2.3439,2.3448,2.3426,2.3449,2.3444,2.345,2.3449,2.3467,2.3443,2.3459,2.3463,2.3468,2.3474,2.3347,2.3468,2.3468,2.3468,2.3467,2.3467,0,2.3532,2.3523,2.3536,2.3537,2.3548,2.3513,2.3512,2.3524,2.3544,2.354,2.355,2.357,2.3584,2.3568,2.3579,2.3596,2.3581,2.36,2.3599,2.3598,2.3495,2.3484,2.3612,2.3612,2.3612,2.3612,2.3612,2.3612,2.3603,2.3639,2.3622,2.3656,2.3646,2.3666,2.3668,2.3669,2.3666,2.3689,2.37,2.3688,2.3679,2.3689,2.3701,2.3695,2.3701,2.3726,2.3715,2.362,2.3605,2.3592,2.3581,2.3727,2.3727,2.3816,2.3817,2.3817]},{"header":{"parameterUnit":"m.s-1","parameterCategory":1,"la1":30.2991,"la2":30.254,"lo1":-89.0895,"lo2":-89.0444,"dy":0.0017,"dx":0.0017,"nx":28,"ny":28,"refTime":"2025-07-05T03:00:00:Z","depth":0,"parameterNumber":3,"parameterNumberName":"V-component_of_WINDS"},"data":[0,0,0,0,0,0,0,0,0,0,0,0,0,0,0,0,0,0,0,0,0,0,0,0,0,0,0,0,0,0,0,0,0,0,0,0,0,0,0,0,0,0,0,0,0,0,0,0,0,0,0,0,0,0,0,0,0,0,2.5206,2.5207,0,2.5336,2.5337,2.5339,2.5341,2.5339,2.5338,2.5336,2.5458,2.5463,2.5468,0,0,0,0,0,0,0,0,0,0,0,0,0,2.4948,2.4953,2.5206,2.5207,2.5209,2.5335,2.5337,2.5339,2.5341,2.5339,2.5337,2.5335,2.5457,2.5462,2.5468,0,0,0,0,0,0,0,0,0,0,0,0,0,2.5067,2.4954,2.5205,2.5226,2.5229,2.5335,2.5337,2.5339,2.5341,2.5339,2.5337,2.5334,2.5455,2.5462,2.5469,2.556,0,0,2.549,2.5494,0,0,0,0,0,0,0,0,2.506,2.5076,2.5221,2.5224,2.5228,2.532,2.5291,2.5413,2.5342,2.5298,2.5336,2.5333,2.5413,2.5424,2.5453,2.5566,2.5571,2.5491,2.5495,2.5498,2.55,0,0,0,0,0,0,0,2.5052,2.507,2.5257,2.5223,2.5227,2.5224,2.5238,2.5314,2.5367,2.5302,2.5302,2.5318,2.5415,2.5446,2.5456,2.5573,2.5491,2.5497,2.5502,2.5504,2.5766,2.5768,0,0,0,0,0,0,2.5041,2.5064,2.5253,2.5261,2.5137,2.5231,2.5247,2.5293,2.5367,2.5376,2.532,2.5318,2.5435,2.5448,2.546,2.5572,2.5498,2.5505,2.5509,2.5763,2.5766,2.5769,0,0,0,0,0,0,2.5035,2.5058,2.5247,2.5162,2.5186,2.5238,2.5289,2.5296,2.5328,2.5381,2.5389,2.5344,2.5434,2.545,2.5536,2.5576,2.5508,2.5515,2.576,2.5764,2.5768,2.5796,0,0,0,0,0,0,2.5028,2.5056,2.5094,2.5163,2.5191,2.5325,2.5292,2.5301,2.5342,2.534,2.5405,2.5413,2.5433,2.5525,2.5543,2.5584,2.552,2.5756,2.5762,2.5766,2.5791,2.58,2.5808,0,0,0,0,0,2.5019,2.5095,2.5096,2.5119,2.5241,2.5327,2.5342,2.5367,2.5345,2.5382,2.5415,2.5411,2.5569,2.5534,2.5554,2.5598,2.5754,2.576,2.5766,2.5788,2.5798,2.5808,0,0,0,0,0,0,2.5025,2.5104,2.5107,2.5208,2.5261,2.5327,2.5375,2.5378,2.5436,2.5431,2.5456,2.5471,2.5556,2.5585,2.5545,2.569,2.5658,2.5668,2.5668,2.5678,2.5686,2.5677,2.5526,0,0,0,0,0,2.5039,2.5106,2.517,2.5253,2.528,2.5323,2.5361,2.5376,2.5431,2.5452,2.5492,2.5542,2.5603,2.5642,2.5701,2.5795,2.5808,2.5835,2.5843,2.585,2.5858,2.5909,2.5921,2.5789,2.5789,2.5789,0,0,2.5067,2.5118,2.5159,2.5256,2.5299,2.5364,2.5342,2.5412,2.546,2.5462,2.5546,2.5577,2.5634,2.5724,2.5766,2.5751,2.5898,2.5858,2.5862,2.5867,2.5916,2.5929,2.594,2.5793,2.5792,2.5792,0,0,2.5151,2.5198,2.5272,2.5317,2.5383,2.5411,2.5429,2.5495,2.5516,2.5602,2.5604,2.5659,2.5764,2.5804,2.5838,2.5937,2.5935,2.5955,2.5998,2.6046,2.6057,2.6066,2.61,2.6112,2.5963,2.5964,2.5964,0,2.5176,2.528,2.5309,2.5381,2.5422,2.543,2.5503,2.5543,2.5623,2.565,2.5633,2.5765,2.5803,2.5903,2.5927,2.5955,2.5973,2.5948,2.6054,2.6063,2.6072,2.6105,2.6118,2.5966,2.5965,2.5965,2.5965,0,2.5307,2.5378,2.5429,2.5511,2.5558,2.5629,2.5666,2.5709,2.5719,2.5748,2.5833,2.588,2.5948,2.5973,2.5982,2.6073,2.6062,2.6049,2.6018,2.6087,2.6118,2.613,2.5969,2.5968,2.5967,2.5967,0,0,2.5399,2.5497,2.5515,2.5552,2.5626,2.5679,2.5749,2.582,2.5856,2.591,2.5968,2.6056,2.6045,2.6084,2.6097,2.614,2.6214,2.6122,2.6124,2.6137,2.6315,2.6324,2.6338,2.6213,2.6215,2.6217,2.631,0,2.5491,2.5622,2.5649,2.576,2.5825,2.5833,2.5893,2.5943,2.5971,2.6026,2.6055,2.6117,2.6099,2.6122,2.6165,2.6196,2.625,2.619,2.6264,2.6266,2.6249,2.6354,2.6364,2.6449,2.6322,2.6324,2.6326,0,2.5616,2.5678,2.5797,2.5862,2.5889,2.5945,2.601,2.6065,2.6119,2.6136,2.618,2.6189,2.6258,2.6224,2.6318,2.6277,2.6308,2.6328,2.6331,2.6339,2.63,2.6364,2.6477,2.649,2.6345,2.6344,2.6342,0,2.5671,2.5783,2.5869,2.59,2.5978,2.6016,2.6049,2.6102,2.6142,2.6198,2.6224,2.6286,2.6319,2.6365,2.6389,2.6362,2.6481,2.6449,2.6494,2.6494,2.6519,2.6517,2.6638,2.654,2.654,2.6539,2.6539,0,2.577,2.5842,2.5894,2.5947,2.6026,2.6055,2.6132,2.6164,2.6211,2.6267,2.6275,2.6327,2.6356,2.641,2.6428,2.6503,2.6518,2.6531,2.6535,2.653,2.6529,2.6551,2.6545,2.6543,2.6542,2.6541,2.6541,0,2.5845,2.5883,2.5976,2.6043,2.6062,2.6117,2.6172,2.6221,2.6249,2.6319,2.6337,2.638,2.6444,2.6473,2.6551,2.6563,2.6648,2.6648,2.6631,2.6632,2.6676,2.6671,2.6815,2.6835,2.6724,2.6725,2.6726,0,2.5906,2.5962,2.6036,2.6076,2.6112,2.6175,2.6217,2.6247,2.6289,2.6356,2.6396,2.6462,2.6516,2.6617,2.6652,2.6712,2.6713,2.6759,2.6721,2.6714,2.6712,2.6709,2.6713,2.6766,2.6767,2.6768,2.6768,0,2.6009,2.6026,2.6088,2.6157,2.6208,2.6262,2.6315,2.6346,2.6383,2.643,2.6498,2.654,2.6622,2.6685,2.6747,2.6777,2.6778,2.678,2.6794,2.6789,2.6777,2.6783,2.6649,2.6776,2.6776,2.6775,2.6775,2.6774,2.6078,2.6128,2.6189,2.6257,2.6301,2.635,2.64,2.6435,2.6494,2.6566,2.6578,2.665,2.6701,2.6784,2.6816,2.687,2.6859,2.6878,2.6883,2.6887,2.689,2.6769,2.6881,2.6881,2.6881,2.6881,2.6881,0,2.6182,2.6221,2.6285,2.6361,2.6414,2.6414,2.6472,2.6516,2.658,2.663,2.6684,2.6761,2.6822,2.6863,2.6925,2.696,2.6961,2.6975,2.6972,2.6978,2.6897,2.6879,2.6972,2.6972,2.6972,2.6972,2.6972,2.6972,2.6242,2.6327,2.635,2.6455,2.6492,2.6566,2.66,2.6644,2.6684,2.6771,2.6824,2.6851,2.6896,2.6961,2.7016,2.7026,2.7048,2.7062,2.707,2.6994,2.6984,2.6975,2.6958,2.7066,2.7066,2.7147,2.7148,2.7149]}]]